Location: New Town
(33.2710°N, 90.7534°W)
Time: 13:08:43
(UTC+00:00)

Explorer 11/Cluster Stage 4 - Pass Details

Date: 17 May 2021
Orbit: 467 x 1257 km, 28.8° (Epoch: 14 June)

Event Time Altitude Azimuth Distance (km) Brightness Sun altitude
Rises 06:37:49 0° 270° (W) 4,171 - -36.5°
Reaches altitude 10° 06:41:35 10° 256° (WSW) 3,144 - -36.4°
Maximum altitude 06:47:11 21° 211° (SSW) 2,267 - -36.1°
Drops below altitude 10° 06:52:16 10° 165° (SSE) 2,812 - -35.8°
Sets 06:55:26 0° 149° (SSE) 3,620 - -35.7°
